[[{"header":{"parameterUnit":"m.s-1","parameterCategory":1,"la1":30.2991,"la2":30.254,"lo1":-89.0895,"lo2":-89.0444,"dy":0.0017,"dx":0.0017,"nx":28,"ny":28,"refTime":"2025-08-07T09:00:00:Z","depth":0,"parameterNumber":2,"parameterNumberName":"U-component_of_WINDS"},"data":[0,0,0,0,0,0,0,0,0,0,0,0,0,0,0,0,0,0,0,0,0,0,0,0,0,0,0,0,0,0,0,0,0,0,0,0,0,0,0,0,0,0,0,0,0,0,0,0,0,0,0,0,0,0,0,0,0,0,1.0163,1.0166,0,1.0389,1.0392,1.0394,1.0459,1.0458,1.0457,1.0456,1.0692,1.07,1.0707,0,0,0,0,0,0,0,0,0,0,0,0,0,0.9792,0.9798,1.0163,1.0166,1.0169,1.0389,1.0392,1.0395,1.046,1.0458,1.0457,1.0455,1.069,1.0699,1.0708,0,0,0,0,0,0,0,0,0,0,0,0,0,0.9979,0.98,1.0162,1.0227,1.0235,1.0388,1.0392,1.0396,1.046,1.0458,1.0456,1.0454,1.0687,1.0698,1.0709,1.0815,0,0,1.0743,1.0748,0,0,0,0,0,0,0,0,0.9968,0.9993,1.0215,1.0223,1.0232,1.0394,1.0348,1.0537,1.046,1.0375,1.0456,1.0454,1.0595,1.0614,1.066,1.0826,1.0836,1.0744,1.0751,1.0756,1.0759,0,0,0,0,0,0,0,0.9955,0.9983,1.0253,1.0218,1.0229,1.0247,1.0271,1.0384,1.0493,1.0382,1.0387,1.0413,1.0599,1.0649,1.0666,1.084,1.0744,1.0754,1.0761,1.0765,1.1104,1.1107,0,0,0,0,0,0,0.9931,0.9972,1.0245,1.0259,1.0093,1.0255,1.0282,1.0344,1.0492,1.0512,1.0414,1.0415,1.0631,1.0653,1.0675,1.0809,1.0756,1.0766,1.0773,1.1102,1.1105,1.1108,0,0,0,0,0,0,0.9922,0.9954,1.0236,1.0117,1.0154,1.0263,1.0332,1.035,1.0399,1.0516,1.0536,1.0445,1.0631,1.0659,1.0779,1.0818,1.0771,1.0781,1.1099,1.1103,1.1106,1.1077,0,0,0,0,0,0,0.9911,0.9951,0.9991,1.0118,1.016,1.0335,1.0334,1.0355,1.0418,1.0421,1.055,1.057,1.0631,1.0762,1.079,1.0832,1.079,1.1097,1.1101,1.1105,1.1075,1.1079,1.1082,0,0,0,0,0,0.9898,0.9975,0.9993,1.0026,1.0213,1.0337,1.0362,1.043,1.0421,1.0463,1.0538,1.0566,1.0809,1.0774,1.0806,1.0852,1.1094,1.11,1.1105,1.1073,1.1078,1.1082,0,0,0,0,0,0,0.9852,0.9993,1.0014,1.0134,1.0223,1.0348,1.0403,1.0433,1.0528,1.0527,1.0609,1.0638,1.0752,1.0815,1.0773,1.0963,1.0953,1.0965,1.0917,1.0923,1.0927,1.0909,1.0799,0,0,0,0,0,0.9855,0.9943,1.0062,1.0157,1.02,1.0294,1.0351,1.0395,1.0491,1.053,1.0614,1.0707,1.0805,1.0868,1.0964,1.1084,1.1114,1.1132,1.1135,1.1138,1.1147,1.1215,1.1225,1.1125,1.1125,1.1124,0,0,0.9864,0.9952,1.0003,1.015,1.0224,1.0314,1.0325,1.042,1.0489,1.0545,1.0663,1.0727,1.0838,1.0958,1.1015,1.1014,1.1181,1.1144,1.1145,1.1154,1.1222,1.1231,1.1239,1.1128,1.1127,1.1127,0,0,0.9926,1.0001,1.0088,1.0162,1.0273,1.0335,1.0356,1.0477,1.0521,1.064,1.0684,1.0768,1.0934,1.1011,1.1071,1.1162,1.1191,1.1192,1.1211,1.1276,1.1284,1.1291,1.1323,1.1334,1.12,1.12,1.12,0,0.9923,1.006,1.0129,1.0222,1.0285,1.0339,1.0428,1.0497,1.0635,1.0678,1.0674,1.0883,1.0962,1.11,1.1122,1.117,1.1197,1.1177,1.1277,1.1285,1.1293,1.1325,1.1336,1.12,1.12,1.12,1.12,0,1.005,1.0144,1.0201,1.0331,1.0402,1.0492,1.0576,1.064,1.0678,1.074,1.0862,1.0957,1.1073,1.111,1.115,1.1255,1.125,1.126,1.1252,1.1301,1.1332,1.1344,1.1198,1.1199,1.1199,1.1199,0,0,1.0089,1.0256,1.0276,1.0335,1.0462,1.0537,1.0631,1.0743,1.0795,1.0889,1.097,1.1109,1.1119,1.1188,1.1237,1.1294,1.1359,1.1298,1.1302,1.1305,1.1481,1.1472,1.1485,1.138,1.1382,1.1384,1.1472,0,1.0167,1.0334,1.0399,1.0536,1.0624,1.0676,1.0757,1.0845,1.0906,1.0991,1.1059,1.1156,1.1163,1.1204,1.1264,1.1339,1.1396,1.1334,1.1457,1.146,1.1426,1.1501,1.1492,1.157,1.1485,1.1487,1.1488,0,1.0279,1.0372,1.0516,1.0632,1.0672,1.0744,1.0852,1.0932,1.1033,1.1073,1.1149,1.1195,1.1296,1.1281,1.1422,1.1378,1.1433,1.1477,1.1482,1.1496,1.1476,1.1517,1.1597,1.1608,1.1508,1.1507,1.1505,0,1.0292,1.0454,1.0561,1.061,1.0749,1.0798,1.0858,1.0957,1.102,1.1115,1.1157,1.1263,1.1321,1.1403,1.1476,1.1459,1.1611,1.1602,1.1648,1.1646,1.1677,1.1674,1.1766,1.1713,1.1713,1.1712,1.1712,0,1.0372,1.0458,1.0568,1.0634,1.0733,1.0808,1.0904,1.0968,1.1056,1.1136,1.1189,1.1263,1.1355,1.1442,1.15,1.1608,1.1634,1.167,1.1685,1.1665,1.166,1.1702,1.1698,1.1716,1.1715,1.1714,1.1714,0,1.0402,1.048,1.06,1.0721,1.0753,1.082,1.0925,1.0991,1.1055,1.1156,1.1184,1.1284,1.1389,1.1469,1.1607,1.1646,1.1759,1.1775,1.1725,1.1732,1.1773,1.1767,1.1894,1.1915,1.1848,1.1848,1.1849,0,1.0447,1.0515,1.0642,1.0699,1.0758,1.0849,1.0913,1.0991,1.1056,1.1175,1.1228,1.1336,1.1426,1.1591,1.1677,1.1782,1.1801,1.1838,1.1817,1.1795,1.1801,1.1795,1.1803,1.184,1.1841,1.1841,1.1841,0,1.0519,1.0554,1.0644,1.0747,1.0822,1.0907,1.0994,1.1038,1.1131,1.1202,1.1308,1.1378,1.1517,1.1624,1.1738,1.1802,1.1837,1.1847,1.1863,1.1844,1.1811,1.1829,1.1731,1.1844,1.1844,1.1843,1.1843,1.1843,1.0559,1.0621,1.072,1.0818,1.0891,1.0971,1.1039,1.111,1.12,1.1318,1.1359,1.1469,1.1569,1.1724,1.1789,1.1877,1.1879,1.1902,1.1908,1.1912,1.191,1.1797,1.1899,1.1899,1.1899,1.1899,1.1899,0,1.0632,1.0698,1.0788,1.0907,1.0984,1.101,1.1107,1.1171,1.1266,1.1355,1.1443,1.1566,1.167,1.1763,1.1872,1.1924,1.1943,1.195,1.1947,1.1961,1.1903,1.1878,1.1933,1.1933,1.1933,1.1933,1.1933,1.1933,1.068,1.0786,1.0832,1.0976,1.1042,1.1149,1.1202,1.1276,1.1348,1.1482,1.1568,1.1628,1.1719,1.1835,1.1931,1.1957,1.1994,1.1996,1.2025,1.1969,1.1965,1.1961,1.1937,1.2004,1.2004,1.2076,1.2077,1.2077]},{"header":{"parameterUnit":"m.s-1","parameterCategory":1,"la1":30.2991,"la2":30.254,"lo1":-89.0895,"lo2":-89.0444,"dy":0.0017,"dx":0.0017,"nx":28,"ny":28,"refTime":"2025-08-07T09:00:00:Z","depth":0,"parameterNumber":3,"parameterNumberName":"V-component_of_WINDS"},"data":[0,0,0,0,0,0,0,0,0,0,0,0,0,0,0,0,0,0,0,0,0,0,0,0,0,0,0,0,0,0,0,0,0,0,0,0,0,0,0,0,0,0,0,0,0,0,0,0,0,0,0,0,0,0,0,0,0,0,1.5612,1.5612,0,1.5627,1.5627,1.5627,1.5631,1.5631,1.5631,1.5631,1.5643,1.5643,1.5644,0,0,0,0,0,0,0,0,0,0,0,0,0,1.5584,1.5585,1.5612,1.5612,1.5613,1.5627,1.5627,1.5627,1.5631,1.5631,1.5631,1.5631,1.5643,1.5643,1.5644,0,0,0,0,0,0,0,0,0,0,0,0,0,1.5597,1.5585,1.5612,1.5617,1.5617,1.5626,1.5627,1.5627,1.5631,1.5631,1.5631,1.5631,1.5643,1.5643,1.5644,1.5649,0,0,1.5645,1.5646,0,0,0,0,0,0,0,0,1.5596,1.5598,1.5616,1.5616,1.5617,1.5627,1.5621,1.5634,1.5631,1.5626,1.5631,1.5631,1.5637,1.5638,1.5641,1.5649,1.565,1.5645,1.5646,1.5646,1.5646,0,0,0,0,0,0,0,1.5595,1.5597,1.5618,1.5616,1.5617,1.5616,1.5618,1.5624,1.5632,1.5626,1.5627,1.5629,1.5638,1.5641,1.5642,1.565,1.5645,1.5646,1.5646,1.5646,1.566,1.566,0,0,0,0,0,0,1.5594,1.5597,1.5617,1.5618,1.5606,1.5617,1.5619,1.5624,1.5632,1.5633,1.5629,1.5629,1.564,1.5641,1.5642,1.5647,1.5646,1.5646,1.5647,1.566,1.566,1.566,0,0,0,0,0,0,1.5594,1.5596,1.5617,1.5608,1.561,1.5617,1.5623,1.5624,1.5627,1.5634,1.5635,1.563,1.564,1.5641,1.5647,1.5647,1.5647,1.5647,1.566,1.566,1.566,1.5657,0,0,0,0,0,0,1.5593,1.5596,1.5599,1.5608,1.5611,1.5623,1.5623,1.5625,1.5629,1.5629,1.5636,1.5637,1.564,1.5646,1.5647,1.5648,1.5648,1.566,1.566,1.566,1.5657,1.5657,1.5657,0,0,0,0,0,1.5592,1.5598,1.5599,1.5602,1.5615,1.5623,1.5624,1.5629,1.5629,1.5631,1.5635,1.5636,1.5647,1.5646,1.5648,1.5649,1.566,1.566,1.566,1.5657,1.5657,1.5657,0,0,0,0,0,0,1.5589,1.5599,1.5601,1.561,1.5616,1.5624,1.5627,1.5629,1.5634,1.5634,1.5638,1.5639,1.5644,1.5647,1.5646,1.5653,1.5653,1.5653,1.5651,1.5651,1.5651,1.565,1.5648,0,0,0,0,0,1.559,1.5596,1.5604,1.5612,1.5614,1.562,1.5624,1.5626,1.5632,1.5634,1.5638,1.5642,1.5646,1.5648,1.5653,1.5658,1.5658,1.5659,1.5659,1.5658,1.5659,1.5659,1.5659,1.566,1.566,1.566,0,0,1.5591,1.5597,1.5601,1.5611,1.5616,1.5621,1.5622,1.5628,1.5631,1.5634,1.564,1.5642,1.5647,1.5651,1.5654,1.5654,1.5658,1.5659,1.5658,1.5659,1.5659,1.5659,1.5659,1.566,1.566,1.566,0,0,1.5596,1.5602,1.5608,1.5612,1.5618,1.5622,1.5623,1.563,1.5632,1.5637,1.5639,1.5642,1.565,1.5652,1.5654,1.5656,1.5657,1.5658,1.5657,1.5657,1.5657,1.5657,1.5656,1.5656,1.5658,1.5658,1.5658,0,1.5596,1.5605,1.561,1.5615,1.5618,1.5622,1.5626,1.563,1.5637,1.5638,1.5639,1.5646,1.565,1.5654,1.5654,1.5656,1.5656,1.5657,1.5657,1.5657,1.5657,1.5656,1.5656,1.5658,1.5658,1.5658,1.5658,0,1.5604,1.561,1.5614,1.5621,1.5624,1.5629,1.5633,1.5635,1.5637,1.564,1.5643,1.5647,1.5651,1.5652,1.5654,1.5656,1.5656,1.5656,1.5657,1.5657,1.5656,1.5656,1.5657,1.5658,1.5658,1.5658,0,0,1.5609,1.5617,1.5618,1.5621,1.5627,1.5631,1.5634,1.5638,1.564,1.5644,1.5646,1.565,1.565,1.5653,1.5655,1.5655,1.5654,1.5655,1.5656,1.5654,1.5653,1.5652,1.5652,1.5655,1.5655,1.5655,1.5653,0,1.5614,1.5622,1.5625,1.5631,1.5634,1.5636,1.5639,1.5642,1.5644,1.5646,1.5648,1.565,1.5651,1.5652,1.5653,1.5654,1.5654,1.5654,1.5655,1.5655,1.5653,1.5652,1.5651,1.5649,1.5652,1.5652,1.5652,0,1.5621,1.5625,1.5631,1.5634,1.5636,1.5638,1.5641,1.5644,1.5646,1.5647,1.5649,1.565,1.5651,1.5652,1.5653,1.5653,1.5653,1.5653,1.5653,1.5653,1.5653,1.5651,1.5649,1.5648,1.5652,1.5652,1.5652,0,1.5622,1.5628,1.5632,1.5634,1.5639,1.564,1.5642,1.5644,1.5645,1.5647,1.5648,1.565,1.565,1.5651,1.5651,1.5652,1.5652,1.5652,1.5651,1.5651,1.5651,1.5651,1.5649,1.5652,1.5652,1.5652,1.5652,0,1.5626,1.5629,1.5632,1.5635,1.5637,1.564,1.5642,1.5644,1.5645,1.5646,1.5648,1.5649,1.565,1.565,1.5651,1.565,1.5651,1.565,1.565,1.565,1.565,1.565,1.565,1.5652,1.5652,1.5652,1.5652,0,1.5628,1.5631,1.5635,1.5638,1.5639,1.564,1.5642,1.5643,1.5645,1.5646,1.5646,1.5648,1.5648,1.5649,1.5649,1.5649,1.5648,1.5649,1.5648,1.5647,1.5646,1.5645,1.5643,1.5641,1.5647,1.5647,1.5647,0,1.563,1.5633,1.5636,1.5637,1.5638,1.564,1.5641,1.5643,1.5644,1.5645,1.5646,1.5646,1.5647,1.5646,1.5646,1.5646,1.5646,1.5645,1.5646,1.5645,1.5644,1.5644,1.5643,1.5645,1.5645,1.5645,1.5645,0,1.5633,1.5634,1.5636,1.5638,1.5639,1.5641,1.5642,1.5643,1.5644,1.5644,1.5645,1.5645,1.5645,1.5644,1.5644,1.5644,1.5643,1.5644,1.5644,1.5643,1.5642,1.5641,1.5646,1.5644,1.5644,1.5644,1.5644,1.5644,1.5635,1.5636,1.5638,1.5639,1.564,1.5641,1.5642,1.5642,1.5643,1.5643,1.5644,1.5643,1.5643,1.5642,1.5642,1.564,1.5641,1.564,1.564,1.564,1.5639,1.5642,1.564,1.564,1.564,1.564,1.564,0,1.5637,1.5637,1.5639,1.564,1.5641,1.5641,1.5642,1.5642,1.5642,1.5642,1.5642,1.5641,1.564,1.5639,1.5638,1.5637,1.5636,1.5636,1.5636,1.5635,1.5639,1.5639,1.5636,1.5636,1.5636,1.5636,1.5636,1.5636,1.5638,1.5639,1.564,1.5641,1.5641,1.5641,1.5641,1.5641,1.5641,1.564,1.5639,1.5639,1.5638,1.5636,1.5634,1.5634,1.5633,1.5632,1.5631,1.5635,1.5635,1.5636,1.5636,1.5632,1.5632,1.5628,1.5628,1.5628]}]]